DW4230 Weather Reports


time (UTC)temp
C
wind
direction
speed
KPH
gust
KPH
rain 1hr
cm
rain 24hr
cm
rain mn
cm
humidity
%
barometer
mb
20260902204523 21 133 6.4 17.7 0.00 0.18 0.00 71 1019.1
20260902203056 21 174 4.8 14.5 0.00 0.20 0.00 72 1018.9
20260902201534 21 163 8.0 16.1 0.00 0.20 0.00 71 1019.1
20260902200114 22 93 4.8 19.3 0.00 0.20 0.00 68 1019.4
20260902194528 22 124 6.4 17.7 0.00 0.20 0.00 69 1019.5
20260902193112 22 193 9.7 25.7 0.00 0.25 0.00 68 1019.4
20260902191543 21 99 6.4 22.5 0.00 0.25 0.00 71 1019.4
20260902190007 22 268 8.0 20.9 0.00 0.25 0.00 70 1019.4
20260902184550 22 175 6.4 24.1 0.00 0.25 0.00 70 1019.3
20260902183109 22 129 4.8 24.1 0.00 0.66 0.00 70 1019.2
20260902181538 22 124 6.4 17.7 0.00 0.66 0.00 70 1019.7
20260902180132 22 129 8.0 19.3 0.00 0.66 0.00 70 1019.6
20260902174537 22 185 6.4 22.5 0.00 0.66 0.00 71 1019.5
20260902173113 22 77 8.0 19.3 0.00 0.66 0.00 70 1019.4
20260902171542 22 141 6.4 19.3 0.00 0.66 0.00 71 1019.7
20260902170015 22 96 3.2 20.9 0.00 0.66 0.00 72 1019.7
20260902164557 22 124 4.8 14.5 0.00 0.66 0.00 71 1019.9
20260902163016 22 197 4.8 12.9 0.00 0.66 0.00 70 1020.1
20260902161554 22 112 4.8 14.5 0.00 0.66 0.00 68 1020.2
20260902160021 22 141 4.8 14.5 0.00 0.66 0.00 70 1020.4
20260902154559 22 83 4.8 12.9 0.00 0.66 0.00 71 1020.3
20260902153027 22 124 3.2 16.1 0.00 0.71 0.00 72 1020.3
20260902151609 22 119 9.7 16.1 0.00 0.71 0.00 70 1020.2
20260902150034 22 79 4.8 16.1 0.00 0.71 0.00 71 1020.4
20260902144511 21 179 3.2 17.7 0.00 0.71 0.00 73 1019.8
20260902143041 21 114 6.4 16.1 0.00 0.71 0.00 72 1019.8
20260902141505 21 87 6.4 16.1 0.00 0.71 0.00 76 1019.8
20260902140035 21 90 8.0 17.7 0.00 0.71 0.00 77 1019.5
20260902134608 20 106 6.4 16.1 0.00 0.71 0.00 80 1019.5
20260902133027 20 70 4.8 12.9 0.00 0.71 0.00 81 1019.4
20260902131559 19 59 4.8 14.5 0.00 0.71 0.00 81 1019.4
20260902130021 19 62 1.6 14.5 0.00 0.71 0.00 81 1019.5
20260902124611 19 83 4.8 14.5 0.00 0.71 0.00 81 1019.4
20260902123041 19 119 6.4 17.7 0.00 0.71 0.00 81 1019.5
20260902121504 19 115 8.0 16.1 0.00 0.71 0.00 81 1019.8
20260902120046 19 53 8.0 17.7 0.00 0.71 0.00 79 1019.9
20260902114516 19 59 6.4 17.7 0.00 0.71 0.00 80 1019.7
20260902113058 19 91 6.4 16.1 0.00 0.71 0.00 81 1019.5
20260902110118 18 28 6.4 16.1 0.00 0.71 0.00 81 1019.1
20260902104527 18 119 8.0 19.3 0.00 0.71 0.00 82 1018.9
20260902103055 18 175 6.4 17.7 0.00 0.71 0.00 83 1019.0
20260902101611 18 78 6.4 17.7 0.00 0.71 0.00 82 1018.8
20260902100057 18 95 4.8 19.3 0.00 0.71 0.00 83 1018.9
20260902094506 18 98 6.4 16.1 0.00 0.71 0.00 84 1018.7
20260902093038 18 93 4.8 16.1 0.00 0.71 0.00 84 1018.4
20260902091509 18 65 8.0 17.7 0.00 0.71 0.00 88 1018.4
20260902090029 17 77 6.4 14.5 0.00 0.71 0.00 92 1018.6
20260902084624 17 19 4.8 9.7 0.00 0.71 0.00 92 1018.4
20260902083024 17 40 4.8 14.5 0.00 0.71 0.00 91 1018.2
20260902081607 18 39 8.0 12.9 0.00 0.71 0.00 90 1018.1
20260902080032 18 46 6.4 20.9 0.00 0.71 0.00 86 1018.3
20260902074547 18 93 6.4 17.7 0.00 0.71 0.00 87 1018.3
20260902073009 18 83 8.0 22.5 0.00 0.71 0.00 86 1018.1
20260902071547 18 87 9.7 19.3 0.00 0.71 0.00 85 1017.8
20260902070016 18 76 8.0 19.3 0.00 0.71 0.00 83 1017.8
20260902064610 17 56 6.4 19.3 0.00 0.71 0.00 90 1018.0
20260902063037 17 77 4.8 9.7 0.00 0.71 0.00 92 1018.0
20260902061611 17 74 6.4 14.5 0.00 0.71 0.00 91 1018.1
20260902060036 17 48 4.8 12.9 0.00 0.71 0.00 89 1018.1
20260902054612 18 108 6.4 12.9 0.00 0.71 0.00 85 1018.1
20260902053028 18 80 4.8 12.9 0.00 0.71 0.00 88 1017.7
20260902051606 18 56 6.4 16.1 0.00 0.71 0.00 88 1017.6
20260902050028 18 150 6.4 16.1 0.00 0.71 0.00 88 1017.6
20260902044553 18 139 4.8 14.5 0.00 0.71 0.00 88 1017.5
20260902043003 18 69 4.8 14.5 0.00 0.71 0.71 87 1017.4
20260902041539 18 137 4.8 16.1 0.00 0.71 0.71 87 1017.5
20260902040011 18 129 4.8 16.1 0.00 0.71 0.71 86 1017.4
20260902034604 18 78 6.4 19.3 0.00 0.71 0.71 86 1017.3
20260902033027 18 93 6.4 16.1 0.00 0.71 0.71 85 1017.3
20260902031612 18 57 4.8 12.9 0.00 0.71 0.71 86 1017.4
20260902030043 18 97 6.4 11.3 0.00 0.71 0.71 85 1017.3
20260902024505 18 86 4.8 14.5 0.00 0.71 0.71 84 1017.1
20260902023046 17 82 3.2 11.3 0.00 0.71 0.71 80 1017.1
20260902021507 17 58 4.8 14.5 0.00 0.71 0.71 77 1016.8
20260902020039 17 78 4.8 11.3 0.00 0.71 0.71 77 1016.6
20260902014510 17 74 3.2 11.3 0.00 0.71 0.71 81 1016.7
20260902013049 17 82 4.8 9.7 0.00 0.71 0.71 86 1016.9
20260902011530 17 87 4.8 12.9 0.00 0.71 0.71 89 1016.6
20260902004524 17 114 4.8 11.3 0.00 0.71 0.71 89 1017.0
20260902003105 17 138 4.8 14.5 0.00 0.71 0.71 91 1017.0
20260902001543 16 158 3.2 11.3 0.00 0.71 0.71 91 1016.9
20260902000003 16 155 4.8 16.1 0.00 0.71 0.71 92 1016.8
20260901234546 16 171 3.2 20.9 0.00 0.71 0.71 93 1016.4
20260901233013 16 114 3.2 12.9 0.00 0.71 0.71 93 1016.4
20260901231553 16 124 1.6 11.3 0.00 0.71 0.71 93 1016.5
20260901230023 16 188 1.6 8.0 0.03 0.71 0.71 92 1016.5
20260901224619 16 133 3.2 16.1 0.03 0.71 0.71 92 1016.5
20260901223027 16 135 3.2 16.1 0.08 0.71 0.71 92 1016.6
20260901220018 15 191 8.0 22.5 0.13 0.71 0.71 92 1016.8
20260901214559 16 138 8.0 19.3 0.13 0.71 0.71 92 1016.7
20260901213125 16 134 3.2 17.7 0.10 0.66 0.66 92 1016.7
20260901211533 16 167 4.8 11.3 0.10 0.64 0.64 93 1016.6
20260901210010 17 170 3.2 9.7 0.05 0.58 0.58 92 1016.5